EUTELSAT 36D

Last updated on Sun Jun 21 2026 00:03:09 GMT+0000 (Coordinated Universal Time)

1 59346U 24059A 26171.25656352 .00000000 00000+0 00000+0 0 9996 2 59346 0.0182 14.3572 0000082 90.7827 291.5697 1.00267349 8172
UTC large
Height (km)
Speed (km/s)
/
Latitude / Longitude
Inclination (degrees)
Orbital Period (minutes)
Azimuth
Elevation
Range (km)
Doppler Factor

Next 0 passes for location: London (51.5072 / 0.1276)

No passes found over London.
EUTELSAT 36D